Volver al catálogo

STARLINK-5089

ActivoComunicacionesVLEO
NORAD 56148·PAYLOAD·🇺🇸 United States

Lanzado Mar 29, 2023 desde Cape Canaveral Space Force Station

Loading…

Próximos Pases (próximas 24 horas)

TLE

ActualizadoSource: CelesTrak SupGP

Época: Sep 14, 2026, 21:43 UTC

1 56148C 23046BH  26257.90534722 -.00002370  00000+0 -85881-4 0  2577
2 56148  43.0006 121.7027 0001165 250.7203 345.0058 15.27565521    16

Sigue STARLINK-5089 en tiempo real con AllMySat

Download on the App Store